Wheeler AAF, HI

11:27 PM HST on May 22, 2018 (GMT -1000)
Wheeler Army Air Field

Weather History for PHHI - May, 2014

Change the Weather History Date:

Saturday, May 17, 2014

  Actual Average Record
Temperature  
Mean Temperature 72 °F -  
Max Temperature 80 °F 77 °F 83 °F (2018)
Min Temperature 65 °F 63 °F 62 °F (1999)
Cooling Degree Days 8    
Growing Degree Days 22 (Base 50)    
Moisture  
Dew Point 65 °F    
Average Humidity 74    
Maximum Humidity 93    
Minimum Humidity 55    
Precipitation  
Precipitation 0.00 in - - ()
Sea Level Pressure  
Sea Level Pressure 29.99 in    
Wind  
Wind Speed 3 mph (South)    
Max Wind Speed 8 mph    
Max Gust Speed -    
Visibility 10 miles    
Events      
Averages and records for this station are not official NWS values.
T = Trace of Precipitation, MM = Missing Value Source: NWS Daily Summary

Daily Weather History Graph

Daily Weather History Graph

Search for Another Location

Airport or City:

Astronomy

May. 17, 2014 Rise Set
Actual Time 5:52 AM HST 7:04 PM HST
Civil Twilight 5:28 AM HST 7:28 PM HST
Nautical Twilight 5:00 AM HST 7:57 PM HST
Astronomical Twilight 4:31 AM HST 8:26 PM HST
Moon 10:18 PM HST (5/17) 8:46 AM HST (5/17)
Length of Visible Light 13h 59m
Length of Day
13h 11m
Waning Gibbous, 87% of the Moon is Illuminated
May 17
Waning Gibbous
May 21
Last Quarter
May 28
New
Jun 5
First Quarter
Jun 12
Full

Hourly Weather History & Observations

Time (HST) Temp. Heat Index Dew Point Humidity Pressure Visibility Wind Dir Wind Speed Gust Speed Precip Events Conditions
12:58 AM 69.4 °F - 64.6 °F 84% 30.01 in 10.0 mi Calm Calm - N/A   Overcast
1:58 AM 68.7 °F - 64.4 °F 86% 30.00 in 10.0 mi NW 4.6 mph - N/A   Mostly Cloudy
2:58 AM 69.8 °F - 64.4 °F 83% 29.99 in 10.0 mi NW 2.3 mph - N/A   Mostly Cloudy
3:58 AM 69.6 °F - 64.4 °F 83% 29.98 in 10.0 mi WNW 4.6 mph - N/A   Partly Cloudy
4:58 AM 65.3 °F - 63.3 °F 93% 29.99 in 10.0 mi Calm Calm - N/A   Clear
5:58 AM 66.2 °F - 63.9 °F 92% 29.99 in 10.0 mi Calm Calm - N/A   Clear
6:58 AM 65.5 °F - 63.0 °F 92% 30.02 in 10.0 mi Calm Calm - N/A   Clear
7:58 AM 75.9 °F - 65.3 °F 70% 30.01 in 10.0 mi ESE 2.3 mph - N/A   Clear
8:58 AM 78.1 °F - 63.1 °F 60% 30.01 in 10.0 mi Variable 3.5 mph - N/A   Clear
9:58 AM 78.6 °F - 63.7 °F 60% 30.01 in 10.0 mi ESE 4.6 mph - N/A   Scattered Clouds
10:58 AM 80.6 °F 81.9 °F 63.1 °F 55% 30.00 in 10.0 mi ESE 6.9 mph - N/A   Mostly Cloudy
11:58 AM 80.8 °F 82.2 °F 63.5 °F 56% 29.98 in 10.0 mi SSE 4.6 mph - N/A   Overcast
12:58 PM 80.6 °F 82.2 °F 63.9 °F 57% 29.97 in 10.0 mi SSE 8.1 mph - N/A   Overcast
1:58 PM 78.6 °F - 63.5 °F 60% 29.96 in 10.0 mi Variable 5.8 mph - N/A   Overcast
2:58 PM 80.8 °F 82.8 °F 65.7 °F 60% 29.95 in 10.0 mi Variable 6.9 mph - N/A   Mostly Cloudy
3:58 PM 79.2 °F - 64.6 °F 61% 29.95 in 10.0 mi South 6.9 mph - N/A   Scattered Clouds
4:58 PM 78.1 °F - 64.6 °F 63% 29.96 in 10.0 mi Variable 4.6 mph - N/A   Scattered Clouds
5:23 PM 77.0 °F - 64.4 °F 65% 29.98 in 10.0 mi SSE 6.9 mph - N/A   Overcast
5:58 PM 75.6 °F - 65.7 °F 71% 29.97 in 10.0 mi SSW 4.6 mph - N/A   Overcast
6:03 PM 75.2 °F - 66.2 °F 73% 29.99 in 10.0 mi South 5.8 mph - N/A   Overcast
6:28 PM 75.2 °F - 66.2 °F 73% 30.00 in 10.0 mi Variable 2.3 mph - N/A   Overcast
6:53 PM 75.2 °F - 64.4 °F 69% 30.00 in 10.0 mi South 3.5 mph - N/A   Scattered Clouds
6:58 PM 74.3 °F - 65.3 °F 73% 29.98 in 10.0 mi Variable 2.3 mph - N/A   Scattered Clouds
7:58 PM 73.4 °F - 65.7 °F 77% 29.99 in 10.0 mi South 2.3 mph - N/A   Overcast
8:58 PM 71.1 °F - 65.3 °F 82% 30.00 in 10.0 mi Calm Calm - N/A   Clear
9:58 PM 70.2 °F - 65.3 °F 85% 30.01 in 5.0 mi NE 3.5 mph - N/A   Haze
10:58 PM 68.9 °F - 65.1 °F 88% 30.02 in 10.0 mi Variable 2.3 mph - N/A   Overcast
11:58 PM 68.0 °F - 64.9 °F 90% 30.01 in 10.0 mi NNW 2.3 mph - N/A   Mostly Cloudy